Time,TemperatureF,DewpointF,PressureIn,WindDirection,WindDirectionDegrees,WindSpeedMPH,WindSpeedGustMPH,Humidity,HourlyPrecipIn,Conditions,Clouds,dailyrainin,SoftwareType,DateUTC
2013-09-23 00:13:00,43.0,37.0,-100.00,SE,140,4.0,14.0,79,0.00,,,1.20,,2013-09-23 06:13:00,
2013-09-23 00:22:00,43.0,37.0,-100.00,SE,140,4.0,14.0,79,0.00,,,1.20,,2013-09-23 06:22:00,
2013-09-23 00:32:00,43.0,37.0,-100.00,SE,140,4.0,14.0,79,0.00,,,1.20,,2013-09-23 06:32:00,
2013-09-23 00:52:00,41.0,36.0,-100.00,North,4,0.0,7.0,81,0.01,,,-99.99,,2013-09-23 06:52:00,
2013-09-23 01:01:00,41.0,36.0,-100.00,North,4,0.0,7.0,81,0.01,,,-99.99,,2013-09-23 07:01:00,
2013-09-23 01:11:00,41.0,36.0,-100.00,North,4,0.0,7.0,81,0.01,,,-99.99,,2013-09-23 07:11:00,
2013-09-23 01:21:00,41.0,36.0,-100.00,North,4,0.0,7.0,81,0.01,,,-99.99,,2013-09-23 07:21:00,
2013-09-23 01:32:00,41.0,36.0,-100.00,North,4,0.0,7.0,81,0.01,,,-99.99,,2013-09-23 07:32:00,
2013-09-23 01:52:00,40.0,37.0,-100.00,SE,139,0.0,1.0,89,0.00,,,1.21,,2013-09-23 07:52:00,
2013-09-23 02:02:00,40.0,37.0,-100.00,SE,139,0.0,1.0,89,0.00,,,1.21,,2013-09-23 08:02:00,
2013-09-23 02:11:00,40.0,37.0,-100.00,SE,139,0.0,1.0,89,0.00,,,1.21,,2013-09-23 08:11:00,
2013-09-23 02:22:00,40.0,37.0,-100.00,SE,139,0.0,1.0,89,0.00,,,1.21,,2013-09-23 08:22:00,
2013-09-23 02:32:00,40.0,37.0,-100.00,SE,139,0.0,1.0,89,0.00,,,1.21,,2013-09-23 08:32:00,
2013-09-23 03:11:00,41.0,35.0,-100.00,East,84,3.0,6.0,79,0.00,,,-99.99,,2013-09-23 09:11:00,
2013-09-23 03:21:00,41.0,35.0,-100.00,East,84,3.0,6.0,79,0.00,,,-99.99,,2013-09-23 09:21:00,
2013-09-23 03:33:00,41.0,35.0,-100.00,East,84,3.0,6.0,79,0.00,,,-99.99,,2013-09-23 09:33:00,
2013-09-23 04:13:00,38.0,34.0,-100.00,South,178,3.0,5.0,87,0.00,,,-99.99,,2013-09-23 10:13:00,
2013-09-23 04:23:00,38.0,34.0,-100.00,South,178,3.0,5.0,87,0.00,,,-99.99,,2013-09-23 10:23:00,
2013-09-23 04:33:00,38.0,34.0,-100.00,South,178,3.0,5.0,87,0.00,,,-99.99,,2013-09-23 10:33:00,
2013-09-23 05:12:00,40.0,35.0,-100.00,ESE,112,4.0,6.0,83,0.00,,,1.06,,2013-09-23 11:12:00,
2013-09-23 05:21:00,40.0,35.0,-100.00,ESE,112,4.0,6.0,83,0.00,,,1.06,,2013-09-23 11:21:00,
2013-09-23 05:33:00,40.0,35.0,-100.00,ESE,112,4.0,6.0,83,0.00,,,1.06,,2013-09-23 11:33:00,
2013-09-23 06:11:00,41.0,35.0,-100.00,ESE,111,2.0,6.0,80,0.00,,,1.06,,2013-09-23 12:11:00,
2013-09-23 06:22:00,41.0,35.0,-100.00,ESE,111,2.0,6.0,80,0.00,,,1.06,,2013-09-23 12:22:00,
2013-09-23 06:32:00,41.0,35.0,-100.00,ESE,111,2.0,6.0,80,0.00,,,1.06,,2013-09-23 12:32:00,
2013-09-23 07:11:00,40.0,35.0,-100.00,ESE,116,4.0,6.0,83,0.00,,,1.06,,2013-09-23 13:11:00,
2013-09-23 07:21:00,40.0,35.0,-100.00,ESE,116,4.0,6.0,83,0.00,,,1.06,,2013-09-23 13:21:00,
2013-09-23 07:32:00,40.0,35.0,-100.00,ESE,116,4.0,6.0,83,0.00,,,1.06,,2013-09-23 13:32:00,
2013-09-23 08:11:00,41.0,37.0,-100.00,ESE,102,4.0,7.0,84,0.00,,,1.06,,2013-09-23 14:11:00,
2013-09-23 08:21:00,41.0,37.0,-100.00,ESE,102,4.0,7.0,84,0.00,,,1.06,,2013-09-23 14:21:00,
2013-09-23 08:32:00,41.0,37.0,-100.00,ESE,102,4.0,7.0,84,0.00,,,1.06,,2013-09-23 14:32:00,
2013-09-23 09:11:00,48.0,40.0,-100.00,East,88,5.0,8.0,73,0.00,,,1.06,,2013-09-23 15:11:00,
2013-09-23 09:21:00,48.0,40.0,-100.00,East,88,5.0,8.0,73,0.00,,,1.06,,2013-09-23 15:21:00,
2013-09-23 09:33:00,48.0,40.0,-100.00,East,88,5.0,8.0,73,0.00,,,1.06,,2013-09-23 15:33:00,
2013-09-23 09:54:00,52.0,41.0,-100.00,ENE,73,7.0,12.0,65,0.00,,,1.06,,2013-09-23 15:54:00,
2013-09-23 10:03:00,52.0,41.0,-100.00,ENE,73,7.0,12.0,65,0.00,,,1.06,,2013-09-23 16:03:00,
2013-09-23 10:12:00,52.0,41.0,-100.00,ENE,73,7.0,12.0,65,0.00,,,1.06,,2013-09-23 16:12:00,
2013-09-23 10:23:00,52.0,41.0,-100.00,ENE,73,7.0,12.0,65,0.00,,,1.06,,2013-09-23 16:23:00,
2013-09-23 10:33:00,52.0,41.0,-100.00,ENE,73,7.0,12.0,65,0.00,,,1.06,,2013-09-23 16:33:00,
2013-09-23 10:34:00,55.0,41.0,-100.00,East,101,10.0,16.0,58,0.00,,,1.06,,2013-09-23 16:34:00,
2013-09-23 11:12:00,55.0,41.0,-100.00,East,101,10.0,16.0,58,0.00,,,1.06,,2013-09-23 17:12:00,
2013-09-23 11:24:00,55.0,41.0,-100.00,East,101,10.0,16.0,58,0.00,,,1.06,,2013-09-23 17:24:00,
2013-09-23 12:12:00,57.0,41.0,-100.00,East,98,10.0,17.0,54,0.00,,,1.01,,2013-09-23 18:12:00,
2013-09-23 12:21:00,57.0,41.0,-100.00,East,98,10.0,17.0,54,0.00,,,1.01,,2013-09-23 18:21:00,
2013-09-23 12:33:00,57.0,41.0,-100.00,East,98,10.0,17.0,54,0.00,,,1.01,,2013-09-23 18:33:00,
2013-09-23 13:12:00,59.0,41.0,-100.00,ESE,109,10.0,19.0,52,0.00,,,1.01,,2013-09-23 19:12:00,
2013-09-23 13:22:00,59.0,41.0,-100.00,ESE,109,10.0,19.0,52,0.00,,,1.01,,2013-09-23 19:22:00,
2013-09-23 13:32:00,59.0,41.0,-100.00,ESE,109,10.0,19.0,52,0.00,,,1.01,,2013-09-23 19:32:00,
2013-09-23 13:53:00,60.0,41.0,-100.00,ESE,119,10.0,19.0,50,0.00,,,0.96,,2013-09-23 19:53:00,
2013-09-23 14:02:00,60.0,41.0,-100.00,ESE,119,10.0,19.0,50,0.00,,,0.96,,2013-09-23 20:02:00,
2013-09-23 14:12:00,60.0,41.0,-100.00,ESE,119,10.0,19.0,50,0.00,,,0.96,,2013-09-23 20:12:00,
2013-09-23 14:21:00,60.0,41.0,-100.00,ESE,119,10.0,19.0,50,0.00,,,0.96,,2013-09-23 20:21:00,
2013-09-23 14:32:00,60.0,41.0,-100.00,ESE,119,10.0,19.0,50,0.00,,,0.96,,2013-09-23 20:32:00,
2013-09-23 14:34:00,61.0,41.0,-100.00,ESE,117,10.0,19.0,47,0.00,,,0.62,,2013-09-23 20:34:00,
2013-09-23 14:52:00,61.0,41.0,-100.00,ESE,117,10.0,19.0,47,0.00,,,0.62,,2013-09-23 20:52:00,
2013-09-23 15:02:00,61.0,41.0,-100.00,ESE,117,10.0,19.0,47,0.00,,,0.62,,2013-09-23 21:02:00,
2013-09-23 15:11:00,61.0,41.0,-100.00,ESE,117,10.0,19.0,47,0.00,,,0.62,,2013-09-23 21:11:00,
2013-09-23 15:23:00,61.0,41.0,-100.00,ESE,117,10.0,19.0,47,0.00,,,0.62,,2013-09-23 21:23:00,
2013-09-23 15:54:00,62.0,40.0,-100.00,ESE,116,10.0,18.0,45,0.00,,,0.36,,2013-09-23 21:54:00,
2013-09-23 16:03:00,62.0,40.0,-100.00,ESE,116,10.0,18.0,45,0.00,,,0.36,,2013-09-23 22:03:00,
2013-09-23 16:13:00,62.0,40.0,-100.00,ESE,116,10.0,18.0,45,0.00,,,0.36,,2013-09-23 22:13:00,
2013-09-23 16:23:00,62.0,40.0,-100.00,ESE,116,10.0,18.0,45,0.00,,,0.36,,2013-09-23 22:23:00,
2013-09-23 16:33:00,62.0,40.0,-100.00,ESE,116,10.0,18.0,45,0.00,,,0.36,,2013-09-23 22:33:00,
2013-09-23 16:34:00,62.0,39.0,-100.00,East,101,9.0,17.0,43,0.00,,,0.12,,2013-09-23 22:34:00,
2013-09-23 17:12:00,62.0,39.0,-100.00,East,101,9.0,17.0,43,0.00,,,0.12,,2013-09-23 23:12:00,
2013-09-23 17:22:00,62.0,39.0,-100.00,East,101,9.0,17.0,43,0.00,,,0.12,,2013-09-23 23:22:00,
2013-09-23 18:11:00,62.0,38.0,-100.00,ESE,108,9.0,18.0,41,0.00,,,0.01,,2013-09-24 00:11:00,
2013-09-23 18:22:00,62.0,38.0,-100.00,ESE,108,9.0,18.0,41,0.00,,,0.01,,2013-09-24 00:22:00,
2013-09-23 18:32:00,62.0,38.0,-100.00,ESE,108,9.0,18.0,41,0.00,,,0.01,,2013-09-24 00:32:00,
2013-09-23 19:12:00,60.0,34.0,-100.00,ESE,104,7.0,14.0,38,0.00,,,0.01,,2013-09-24 01:12:00,
2013-09-23 19:21:00,60.0,34.0,-100.00,ESE,104,7.0,14.0,38,0.00,,,0.01,,2013-09-24 01:21:00,
2013-09-23 19:32:00,60.0,34.0,-100.00,ESE,104,7.0,14.0,38,0.00,,,0.01,,2013-09-24 01:32:00,
2013-09-23 20:12:00,54.0,34.0,-100.00,ESE,116,6.0,11.0,47,0.00,,,0.01,,2013-09-24 02:12:00,
2013-09-23 20:22:00,54.0,34.0,-100.00,ESE,116,6.0,11.0,47,0.00,,,0.01,,2013-09-24 02:22:00,
2013-09-23 20:32:00,54.0,34.0,-100.00,ESE,116,6.0,11.0,47,0.00,,,0.01,,2013-09-24 02:32:00,
2013-09-23 20:34:00,53.0,36.0,-100.00,ESE,113,6.0,12.0,52,0.00,,,0.01,,2013-09-24 02:34:00,
2013-09-23 21:12:00,53.0,36.0,-100.00,ESE,113,6.0,12.0,52,0.00,,,0.01,,2013-09-24 03:12:00,
2013-09-23 21:22:00,53.0,36.0,-100.00,ESE,113,6.0,12.0,52,0.00,,,0.01,,2013-09-24 03:22:00,
2013-09-23 22:14:00,49.0,36.0,-100.00,WSW,238,3.0,7.0,60,0.00,,,0.01,,2013-09-24 04:14:00,
2013-09-23 22:24:00,49.0,36.0,-100.00,WSW,238,3.0,7.0,60,0.00,,,0.01,,2013-09-24 04:24:00,
2013-09-23 22:33:00,49.0,36.0,-100.00,WSW,238,3.0,7.0,60,0.00,,,0.01,,2013-09-24 04:33:00,
2013-09-23 22:34:00,48.0,36.0,-100.00,SSE,153,3.0,9.0,62,0.00,,,0.01,,2013-09-24 04:34:00,
2013-09-23 23:13:00,48.0,36.0,-100.00,SSE,153,3.0,9.0,62,0.00,,,0.01,,2013-09-24 05:13:00,
2013-09-23 23:22:00,48.0,36.0,-100.00,SSE,153,3.0,9.0,62,0.00,,,0.01,,2013-09-24 05:22:00,